Tupelo, MS

3:40 PM CDT on April 26, 2017 (GMT -0500)
Tupelo Regional

Weather History for KTUP - June, 2013

Change the Weather History Date:

Thursday, June 27, 2013

  Actual Average Record
Temperature  
Mean Temperature 87 °F 80 °F  
Max Temperature 97 °F 91 °F 104 °F (1954)
Min Temperature 77 °F 70 °F 52 °F (1974)
Degree Days  
Heating Degree Days 0 0  
Month to date heating degree days 0 0  
Since 1 June heating degree days 0 0  
Since 1 July heating degree days 2960 2956  
Cooling Degree Days 22 15  
Month to date cooling degree days 374 347  
Year to date cooling degree days 620 624  
Since 1 June cooling degree days 374 347  
Growing Degree Days 36 (Base 50)    
Moisture  
Dew Point 74 °F    
Average Humidity 70    
Maximum Humidity 91    
Minimum Humidity 48    
Precipitation  
Precipitation 0.04 in 0.14 in 2.02 in (2003)
Month to date precipitation 1.99 4.07  
Year to date precipitation 30.42 28.67  
Snow  
Snow 0.00 in 0.00 in - ()
Month to date snowfall 0.0 0.0  
Since 1 June snowfall 0.0 0.0  
Since 1 July snowfall T 2.1  
Snow Depth 0.00 in    
Sea Level Pressure  
Sea Level Pressure 29.90 in    
Wind  
Wind Speed 7 mph (West)    
Max Wind Speed 16 mph    
Max Gust Speed 26 mph    
Visibility 10 miles    
Events Rain , Thunderstorm    
T = Trace of Precipitation, MM = Missing Value Source: NWS Daily Summary

Daily Weather History Graph

Daily Weather History Graph

Search for Another Location

Airport or City:

Trip Planner

Search our weather history database for the weather conditions in past years. The results will help you decide how hot, cold, wet, or windy it might be!

Date:

Astronomy

Jun. 27, 2013 Rise Set
Actual Time 5:45 AM CDT 8:11 PM CDT
Civil Twilight 5:15 AM CDT 8:40 PM CDT
Nautical Twilight 4:39 AM CDT 9:16 PM CDT
Astronomical Twilight 4:00 AM CDT 9:56 PM CDT
Moon 11:23 PM CDT (6/27) 10:32 AM CDT (6/27)
Length of Visible Light 15h 24m
Length of Day
14h 25m
Waning Gibbous, 76% of the Moon is Illuminated
Jun 27
Waning Gibbous
Jun 29
Last Quarter
Jul 8
New
Jul 15
First Quarter
Jul 22
Full

Hourly Weather History & Observations

Time (CDT) Temp. Heat Index Dew Point Humidity Pressure Visibility Wind Dir Wind Speed Gust Speed Precip Events Conditions
12:53 AM 80.1 °F 83.8 °F 72.0 °F 76% 29.92 in 10.0 mi SW 6.9 mph - N/A   Clear
1:53 AM 79.0 °F - 72.0 °F 79% 29.93 in 10.0 mi SW 6.9 mph - N/A   Clear
2:53 AM 78.1 °F - 72.0 °F 81% 29.92 in 10.0 mi WSW 5.8 mph - N/A   Clear
3:53 AM 78.1 °F - 72.0 °F 81% 29.92 in 10.0 mi SW 4.6 mph - N/A   Clear
4:53 AM 77.0 °F - 73.0 °F 88% 29.92 in 10.0 mi SW 6.9 mph - N/A   Clear
5:53 AM 77.0 °F - 72.0 °F 84% 29.92 in 10.0 mi WSW 5.8 mph - N/A   Partly Cloudy
6:53 AM 79.0 °F - 73.0 °F 82% 29.93 in 10.0 mi West 8.1 mph - N/A   Mostly Cloudy
7:53 AM 82.9 °F 89.4 °F 73.9 °F 74% 29.93 in 10.0 mi West 9.2 mph - N/A   Clear
8:53 AM 86.0 °F 93.8 °F 73.9 °F 67% 29.93 in 10.0 mi West 9.2 mph 19.6 mph N/A   Clear
9:53 AM 89.1 °F 98.0 °F 73.9 °F 61% 29.93 in 10.0 mi West 10.4 mph - N/A   Partly Cloudy
10:53 AM 90.0 °F 99.0 °F 73.9 °F 59% 29.92 in 10.0 mi West 13.8 mph 21.9 mph N/A   Clear
11:53 AM 91.9 °F 103.2 °F 75.0 °F 58% 29.91 in 10.0 mi WNW 10.4 mph 16.1 mph N/A   Mostly Cloudy
12:53 PM 91.9 °F 103.2 °F 75.0 °F 58% 29.91 in 10.0 mi West 12.7 mph 19.6 mph N/A   Mostly Cloudy
1:53 PM 93.9 °F 105.4 °F 75.0 °F 54% 29.90 in 10.0 mi NW 8.1 mph 16.1 mph N/A   Scattered Clouds
2:53 PM 96.1 °F 109.4 °F 75.9 °F 52% 29.88 in 10.0 mi WNW 8.1 mph - N/A   Partly Cloudy
3:53 PM 96.1 °F 108.6 °F 75.0 °F 51% 29.88 in 10.0 mi Variable 6.9 mph 16.1 mph N/A   Partly Cloudy
4:53 PM 96.1 °F 107.1 °F 73.9 °F 49% 29.86 in - NNW 5.8 mph - N/A   Unknown
5:53 PM 95.0 °F 106.7 °F 75.0 °F 52% 29.84 in 10.0 mi WNW 5.8 mph - N/A   Clear
6:53 PM 93.0 °F 104.6 °F 75.0 °F 56% 29.84 in 10.0 mi WNW 5.8 mph - N/A   Clear
7:53 PM 90.0 °F 100.2 °F 75.0 °F 61% 29.86 in 10.0 mi WNW 3.5 mph - N/A   Clear
8:32 PM 87.8 °F 97.6 °F 75.2 °F 66% 29.88 in 10.0 mi Calm Calm - N/A Thunderstorm Thunderstorm
8:53 PM 82.0 °F 86.3 °F 71.1 °F 69% 29.87 in 7.0 mi WNW 11.5 mph 26.5 mph 0.01 in Rain , Thunderstorm Thunderstorms and Rain
9:53 PM 79.0 °F - 75.0 °F 88% 29.87 in 10.0 mi SSE 5.8 mph - 0.03 in Thunderstorm Thunderstorm
10:05 PM 80.6 °F 85.4 °F 73.4 °F 79% 29.88 in 10.0 mi ESE 3.5 mph - N/A   Scattered Clouds
10:53 PM 78.1 °F - 75.0 °F 90% 29.83 in 10.0 mi West 3.5 mph - N/A   Clear
11:53 PM 79.0 °F - 75.0 °F 88% 29.85 in 10.0 mi WNW 5.8 mph - N/A   Clear